SKY MUSTER 2 (NBN1B)

Last updated on Sun Nov 16 2025 00:03:43 GMT+0000 (Coordinated Universal Time)

1 41794U 16060B 25319.26671411 -.00000238 00000+0 00000+0 0 9998 2 41794 0.0160 281.9515 0001544 315.8557 57.6425 1.00271640 33379
UTC large
Height (km)
Speed (km/s)
/
Latitude / Longitude
Inclination (degrees)
Orbital Period (minutes)
Azimuth
Elevation
Range (km)
Doppler Factor

Next 0 passes for location: London (51.5072 / 0.1276)

Sorry there are no passes over London.